Location: Falniów
(50.3639°N, 19.9642°E)
Time: 03:46:56
(UTC+00:00)

Cosmos 304 Rocket - Visible Passes

Search period start: 21 April 2026 00:00
Search period end: 01 May 2026 00:00
Orbit: 669 x 675 km, 74.0° (Epoch: 20 April)

Date Brightness Start Highest point End Pass type
(mag) Time Alt. Az. Time Alt. Az. Time Alt. Az.
21 Apr 6.1 18:29:47 10° NNE 18:30:53 11° NE 18:31:58 10° NE visible
21 Apr 4.2 20:07:31 10° NNW 20:12:08 47° ENE 20:13:23 38° ESE visible
21 Apr 5.3 21:47:58 10° NW 21:51:38 25° W 21:51:38 25° W visible
22 Apr 5.5 19:02:23 10° N 19:05:55 20° NE 19:08:57 12° E visible
22 Apr 3.7 20:41:42 10° NNW 20:46:28 74° WSW 20:47:13 60° S visible
22 Apr 6.3 22:24:59 10° W 22:25:28 10° W 22:25:28 10° W visible
23 Apr 4.4 19:36:07 10° NNW 19:40:38 41° ENE 19:42:48 26° ESE visible
23 Apr 5.0 21:16:22 10° NW 21:20:30 30° WSW 21:21:04 29° WSW visible
24 Apr 5.6 18:31:05 10° N 18:34:21 18° NE 18:37:36 10° E visible
24 Apr 3.7 20:10:14 10° NNW 20:15:01 86° WSW 20:16:41 41° SSE visible
24 Apr 6.1 21:52:19 10° WNW 21:54:13 12° W 21:54:56 12° WSW visible
25 Apr 4.6 19:04:43 10° N 19:09:07 35° NE 19:12:19 17° ESE visible
25 Apr 4.9 20:44:47 10° NW 20:49:06 35° WSW 20:50:35 28° SW visible
26 Apr 3.7 19:38:47 10° NNW 19:43:34 81° ENE 19:46:16 26° SSE visible
26 Apr 6.0 21:20:18 10° WNW 21:22:54 15° W 21:24:31 13° WSW visible
27 Apr 4.8 18:33:21 10° N 18:37:36 31° NE 18:41:50 10° ESE visible
27 Apr 4.7 20:13:14 10° NW 20:17:43 41° WSW 20:20:14 23° SSW visible
28 Apr 3.8 19:07:20 10° NNW 19:12:06 70° ENE 19:15:58 15° SSE visible
28 Apr 6.0 20:48:27 10° NW 20:51:33 17° W 20:54:14 11° SW visible
29 Apr 4.5 19:41:42 10° NNW 19:46:18 49° WSW 19:49:59 15° S visible
30 Apr 3.9 18:35:53 10° NNW 18:40:37 60° ENE 18:45:19 10° SE visible
30 Apr 5.9 20:16:43 10° NW 20:20:11 20° W 20:23:38 10° SW visible
